Location: Unspecified
(0.0000°N, 0.0000°E)
Time: 21:19:16
(UTC+00:00)

STARLINK-32114 - Visible Passes

Search period start: 09 June 2026 00:00
Search period end: 19 June 2026 00:00
Orbit: 470 x 471 km, 53.2° (Epoch: 9 June)

Date Brightness Start Highest point End Pass type
(mag) Time Alt. Az. Time Alt. Az. Time Alt. Az.
9 Jun 5.3 05:19:21 10° S 05:22:28 26° SE 05:25:33 10° ENE visible
9 Jun 6.0 18:42:39 10° W 18:44:33 14° SW 18:46:28 10° SSW visible
10 Jun 5.6 04:48:48 10° S 04:51:33 20° SE 04:54:17 10° ENE visible
11 Jun 5.8 04:19:16 13° SSE 04:20:38 15° SE 04:22:51 10° E visible
12 Jun 6.3 03:50:15 11° ESE 03:50:15 11° ESE 03:51:06 10° ESE visible
12 Jun 4.6 05:24:19 10° WSW 05:27:20 26° NW 05:30:26 10° N visible
13 Jun 4.1 04:55:16 27° W 04:56:25 34° NW 04:59:46 10° N visible
14 Jun 4.0 04:26:09 41° NNW 04:26:09 41° NNW 04:29:03 10° NNE visible
15 Jun 5.6 03:56:59 20° NNE 03:56:59 20° NNE 03:58:15 10° NNE visible
